FIN19 EFHK-KDFW

Flight info

Callsign FIN19
Flight time N/A
Altitude 36000
Route NEPEK Y357 EVLIT DCT IRGAL DCT NEBUR DCT OGPAR DCT 70N000E/M085F360 74N020W/M085F380 74N040W 72N060W DCT NADMA/N0491F380 DCT 70N070W 66N080W/N0495F400 61N090W DCT YGX DCT OTLUR DCT KP06C DCT ONL/N0488F410 DCT OBH DCT KIRKE/N0487F400 DCT HOFFF VKTRY2
Aircraft A359/H-SDE2E3GHIJ3J4J5LM1ORWXY/LB1D1

Departure

Time 2026-05-05 13:11
Airport Helsinki Vantaa Airport (EFHK)

Arrival

Time N/A
Airport Dallas Fort Worth International Airport (KDFW)
Time Latitude Longitude Altitude Speed Heading
2026-05-05 12:14 60.31396 24.96251 173 ft 0 kts 47°
2026-05-05 12:59 60.31392 24.96240 173 ft 4 kts 50°
2026-05-05 12:59 60.31375 24.96199 173 ft 4 kts 40°
2026-05-05 12:59 60.31357 24.96174 173 ft 4 kts 27°
2026-05-05 13:00 60.31318 24.96194 173 ft 4 kts 317°
2026-05-05 13:00 60.31298 24.96231 173 ft 4 kts 317°
2026-05-05 13:01 60.31307 24.96172 173 ft 4 kts 267°
2026-05-05 13:01 60.31295 24.96127 173 ft 4 kts 231°
2026-05-05 13:01 60.31278 24.96090 173 ft 4 kts 227°
2026-05-05 13:01 60.31260 24.96050 173 ft 4 kts 227°
2026-05-05 13:02 60.31242 24.96012 173 ft 2 kts 227°
2026-05-05 13:02 60.31242 24.96011 173 ft 0 kts 227°
2026-05-05 13:04 60.31234 24.95990 173 ft 8 kts 234°
2026-05-05 13:04 60.31233 24.95803 173 ft 12 kts 269°
2026-05-05 13:05 60.31188 24.95652 173 ft 13 kts 228°
2026-05-05 13:05 60.31183 24.95507 172 ft 11 kts 305°
2026-05-05 13:05 60.31238 24.95384 172 ft 13 kts 317°
2026-05-05 13:05 60.31306 24.95260 172 ft 14 kts 317°
2026-05-05 13:06 60.31377 24.95123 173 ft 14 kts 312°
2026-05-05 13:06 60.31439 24.94992 174 ft 9 kts 322°
2026-05-05 13:06 60.31489 24.94993 174 ft 7 kts 31°
2026-05-05 13:06 60.31532 24.95088 176 ft 14 kts 47°
2026-05-05 13:07 60.31640 24.95325 176 ft 30 kts 47°
2026-05-05 13:07 60.31782 24.95639 176 ft 31 kts 48°
2026-05-05 13:07 60.31904 24.95909 176 ft 16 kts 48°
2026-05-05 13:07 60.31963 24.95949 178 ft 8 kts 338°
2026-05-05 13:08 60.32041 24.95821 180 ft 21 kts 319°
2026-05-05 13:08 60.32152 24.95614 179 ft 23 kts 317°
2026-05-05 13:08 60.32272 24.95391 182 ft 24 kts 317°
2026-05-05 13:08 60.32413 24.95227 199 ft 23 kts 341°
2026-05-05 13:09 60.32568 24.95125 201 ft 23 kts 342°
2026-05-05 13:09 60.32727 24.95021 201 ft 25 kts 342°
2026-05-05 13:09 60.32897 24.94895 181 ft 27 kts 327°
2026-05-05 13:09 60.33027 24.94668 202 ft 23 kts 317°
2026-05-05 13:10 60.33115 24.94506 210 ft 10 kts 319°
2026-05-05 13:10 60.33124 24.94409 209 ft 7 kts 250°
2026-05-05 13:10 60.33059 24.94262 209 ft 33 kts 227°
2026-05-05 13:10 60.32743 24.93571 197 ft 99 kts 227°
2026-05-05 13:11 60.32148 24.92254 171 ft 154 kts 228°
2026-05-05 13:11 60.31393 24.90695 810 ft 150 kts 226°
2026-05-05 13:11 60.30851 24.88985 1478 ft 144 kts 257°
2026-05-05 13:11 60.30985 24.87074 2193 ft 138 kts 287°
2026-05-05 13:12 60.31243 24.85173 2662 ft 142 kts 279°
2026-05-05 13:12 60.31398 24.83200 3208 ft 144 kts 277°
2026-05-05 13:12 60.31551 24.81094 3514 ft 161 kts 278°